Regional Weather Roundup
Issued by NWS New Orleans/Baton Rouge, LA

Home | Current Version | Previous Version | Text Only | Print | Product List | Glossary On
Versions: 1 2 3 4 5 6 7 8 9 10 11 12 13 14 15 16 17 18 19 20 21 22 23 24 25 26 27 28 29 30 31 32 33 34 35 36 37 38 39 40 41 42 43 44 45 46 47 48 49 50
000
ASUS44 KLIX 010210
RWRLIX
NEW ORLEANS REGIONAL WEATHER ROUNDUP
NATIONAL WEATHER SERVICE NEW ORLEANS LA
900 PM CDT MON AUG 31 2015

NOTE: "FAIR" INDICATES FEW OR NO CLOUDS BELOW 12,000 FEET WITH NO
      SIGNIFICANT WEATHER AND/OR OBSTRUCTIONS TO VISIBILITY.
      SKY/WX - SKY CONDITION AND SIGNIFICANT WEATHER.
      TMP - AIR TEMPERATURE.     DP    - DEWPOINT TEMPERATURE.
      RH  - RELATIVE HUMIDITY.   PRES  - PRESSURE.
      HI  - HEAT INDEX.          WCI   - WIND CHILL INDEX.

*  THESE STATIONS ARE NOT NWS OR FAA STATIONS AND ARE NOT UNDER
   NWS QUALITY CONTROL.

LAZ038-040-048-061>063-065>067-069-010300-
SOUTHEAST LOUISIANA

CITY           SKY/WX    TMP DP  RH WIND       PRES   REMARKS
N.O. AUDUBON     N/A     82  73  75 MISG        N/A
N.O. INTL ARPT MOCLDY    81  69  67 W9        30.03R
N.O. LAKEFRONT CLEAR     82  69  64 S6        30.04R
N.O. DOWNTOWN*   N/A     86  70  58 CALM      30.05R
RESERVE*         N/A     82  72  72 CALM      30.04R
SLIDELL        PTCLDY    78  72  81 CALM      30.03R
BATON ROUGE    MOCLDY    79  74  84 W3        30.03R
BOOTHVILLE     CLEAR     81  72  74 SE5       30.05R
BELLE CHASSE   PTCLDY    76  72  87 W3        30.03R
BOGALUSA*      NOT AVBL
GALLIANO*      CLEAR     78  72  83 CALM      30.04R
NEW ROADS*       N/A     78  73  86 S3        30.03R
GONZALES*        N/A     79  73  83 CALM      30.02R
HAMMOND*       PTCLDY    79  68  69 CALM      30.05R
HOUMA*         CLOUDY    76  75  95 SE3       30.04R
PORT FOURCHON* CLEAR     84  72  65 CALM      30.05R

$$

MSZ070-080>082-010300-
SOUTHERN MISSISSIPPI

CITY           SKY/WX    TMP DP  RH WIND       PRES   REMARKS
MCCOMB         MOCLDY    80  71  74 NW5       30.03R
GULFPORT       CLEAR     79  70  74 CALM      30.03R
BILOXI         CLEAR     80  70  73 SW6       30.04R
PASCAGOULA     CLEAR     74  71  91 CALM      30.04R

$$

COASTAL OBSERVATIONS
LAKE AND NEARSHORE STATIONS

STATION/POSITION TIME  TEMP    WIND        PRES    WAVE
                       AIR SEA DIR/SP/G            HT/PER
                 (UTC) (F)     (DEG/KT/KT) (MB)    (FT/S)
PASCAGOULA       0100   85     210/  7/  9 1016.4
WAVELAND YACHT   0100   83 84  220/  3/  4 1017.1
GRAND ISLE       0100   84 86  110/  2/  3 1016.9
SOUTHWEST PASS   0100   83 87  110/  6/  7 1017.4
NEW CANAL        0100   86 87  140/  3/  5 1015.9
SHELL BEACH      0100   83 86  160/  4/  5 1016.3

OFFSHORE STATIONS

STATION/POSITION TIME  TEMP    WIND        PRES    WAVE
                       AIR SEA DIR/SP/G            HT/PER
                 (UTC) (F)     (DEG/KT/KT) (MB)    (FT/S)
64 S DAUPHIN ISL 0150   83 86  130/  6/  8 1017.6    1/ 7

$$




USA.gov is the U.S. government's official web portal to all federal, state and local government web resources and services.